Time,TemperatureF,DewpointF,PressureIn,WindDirection,WindDirectionDegrees,WindSpeedMPH,WindSpeedGustMPH,Humidity,HourlyPrecipIn,Conditions,Clouds,dailyrainin,SolarRadiationWatts/m^2,SoftwareType,DateUTC
2013-01-06 00:00:00,48.4,46.8,30.11,WNW,287,0.0,3.0,94,0.04,,,0.00,0.00,VWS V14.01,2013-01-06 08:00:00,
2013-01-06 00:02:00,48.3,46.7,30.11,West,262,0.0,4.0,94,0.03,,,0.00,0.00,VWS V14.01,2013-01-06 08:02:00,
2013-01-06 00:07:00,48.3,46.7,30.12,SW,230,0.0,4.0,94,0.03,,,0.00,0.00,VWS V14.01,2013-01-06 08:07:00,
2013-01-06 00:10:00,48.3,46.7,30.12,West,268,0.0,4.0,94,0.03,,,0.00,0.00,VWS V14.01,2013-01-06 08:10:00,
2013-01-06 00:12:00,48.3,46.7,30.12,NE,44,0.0,3.0,94,0.01,,,0.00,0.00,VWS V14.01,2013-01-06 08:12:00,
2013-01-06 00:17:00,48.4,46.8,30.12,South,189,3.0,3.0,94,0.01,,,0.00,0.00,VWS V14.01,2013-01-06 08:17:00,
2013-01-06 00:20:00,48.4,46.8,30.12,SE,146,0.0,4.0,94,0.01,,,0.00,0.00,VWS V14.01,2013-01-06 08:20:00,
2013-01-06 00:22:00,48.4,46.8,30.12,West,271,1.0,3.0,94,0.01,,,0.00,0.00,VWS V14.01,2013-01-06 08:22:00,
2013-01-06 00:27:00,48.5,46.9,30.12,ESE,115,1.0,3.0,94,0.01,,,0.00,0.00,VWS V14.01,2013-01-06 08:27:00,
2013-01-06 00:30:00,48.5,46.9,30.12,SSE,159,0.0,3.0,94,0.01,,,0.00,0.00,VWS V14.01,2013-01-06 08:30:00,
2013-01-06 00:32:00,48.5,46.9,30.11,SW,223,0.0,1.0,94,0.00,,,0.00,0.00,VWS V14.01,2013-01-06 08:32:00,
2013-01-06 00:37:00,48.5,46.9,30.11,WSW,245,0.0,2.0,94,0.00,,,0.00,0.00,VWS V14.01,2013-01-06 08:37:00,
2013-01-06 00:40:00,48.5,46.9,30.11,SW,227,1.0,2.0,94,0.00,,,0.00,0.00,VWS V14.01,2013-01-06 08:40:00,
2013-01-06 00:42:00,48.5,46.9,30.11,SW,222,0.0,3.0,94,0.00,,,0.00,0.00,VWS V14.01,2013-01-06 08:42:00,
2013-01-06 00:47:00,48.6,47.0,30.11,SSW,198,0.0,4.0,94,0.00,,,0.00,0.00,VWS V14.01,2013-01-06 08:47:00,
2013-01-06 00:50:00,48.6,47.0,30.11,SSW,200,0.0,4.0,94,0.00,,,0.00,0.00,VWS V14.01,2013-01-06 08:50:00,
2013-01-06 00:52:00,48.6,47.0,30.11,SSW,192,2.0,4.0,94,0.00,,,0.00,0.00,VWS V14.01,2013-01-06 08:52:00,
2013-01-06 00:58:00,48.6,47.0,30.11,West,270,0.0,5.0,94,0.00,,,0.00,0.00,VWS V14.01,2013-01-06 08:58:00,
2013-01-06 01:00:00,48.6,47.0,30.11,SSE,159,0.0,5.0,94,0.00,,,0.00,0.00,VWS V14.01,2013-01-06 09:00:00,
2013-01-06 01:03:00,48.6,47.0,30.11,South,173,0.0,4.0,94,0.00,,,0.00,0.00,VWS V14.01,2013-01-06 09:03:00,
2013-01-06 01:08:00,48.6,47.0,30.11,WSW,254,0.0,4.0,94,0.00,,,0.00,0.00,VWS V14.01,2013-01-06 09:08:00,
2013-01-06 01:10:00,48.6,47.0,30.11,WSW,237,0.0,4.0,94,0.00,,,0.00,0.00,VWS V14.01,2013-01-06 09:10:00,
2013-01-06 01:13:00,48.7,47.0,30.10,SSW,210,0.0,3.0,94,0.00,,,0.00,0.00,VWS V14.01,2013-01-06 09:13:00,
2013-01-06 01:18:00,48.7,47.0,30.11,West,266,0.0,3.0,94,0.00,,,0.00,0.00,VWS V14.01,2013-01-06 09:18:00,
2013-01-06 01:20:00,48.7,47.0,30.11,West,266,0.0,3.0,94,0.01,,,0.01,0.00,VWS V14.01,2013-01-06 09:20:00,
2013-01-06 01:23:00,48.8,47.2,30.10,SSE,163,1.0,3.0,94,0.01,,,0.01,0.00,VWS V14.01,2013-01-06 09:23:00,
2013-01-06 01:28:00,48.8,47.2,30.10,SSW,213,0.0,3.0,94,0.01,,,0.01,0.00,VWS V14.01,2013-01-06 09:28:00,
2013-01-06 01:30:00,48.8,47.2,30.11,SW,222,0.0,3.0,94,0.01,,,0.01,0.00,VWS V14.01,2013-01-06 09:30:00,
2013-01-06 01:33:00,48.8,47.2,30.10,WSW,237,0.0,1.0,94,0.01,,,0.01,0.00,VWS V14.01,2013-01-06 09:33:00,
2013-01-06 01:38:00,48.8,47.2,30.10,SSW,209,0.0,3.0,94,0.01,,,0.01,0.00,VWS V14.01,2013-01-06 09:38:00,
2013-01-06 01:40:00,48.8,47.2,30.10,SE,143,2.0,3.0,94,0.01,,,0.01,0.00,VWS V14.01,2013-01-06 09:40:00,
2013-01-06 01:43:00,48.8,47.2,30.10,West,272,2.0,4.0,94,0.01,,,0.01,0.00,VWS V14.01,2013-01-06 09:43:00,
2013-01-06 01:48:00,48.9,47.2,30.11,West,263,6.0,6.0,94,0.01,,,0.01,0.00,VWS V14.01,2013-01-06 09:48:00,
2013-01-06 01:50:00,48.9,47.2,30.12,WNW,293,5.0,6.0,94,0.02,,,0.02,0.00,VWS V14.01,2013-01-06 09:50:00,
2013-01-06 01:53:00,48.9,47.2,30.11,SE,126,3.0,6.0,94,0.02,,,0.02,0.00,VWS V14.01,2013-01-06 09:53:00,
2013-01-06 01:58:00,48.6,47.0,30.12,WNW,288,6.0,9.0,94,0.02,,,0.02,0.00,VWS V14.01,2013-01-06 09:58:00,
2013-01-06 02:00:00,48.5,46.9,30.12,West,259,3.0,9.0,94,0.03,,,0.03,0.00,VWS V14.01,2013-01-06 10:00:00,
2013-01-06 02:03:00,48.4,46.5,30.12,SW,233,2.0,7.0,93,0.03,,,0.03,0.00,VWS V14.01,2013-01-06 10:03:00,
2013-01-06 02:08:00,48.4,46.8,30.12,WSW,254,4.0,7.0,94,0.04,,,0.04,0.00,VWS V14.01,2013-01-06 10:08:00,
2013-01-06 02:10:00,48.4,46.8,30.12,West,274,3.0,7.0,94,0.04,,,0.04,0.00,VWS V14.01,2013-01-06 10:10:00,
2013-01-06 02:13:00,48.4,46.8,30.12,SSW,202,0.0,3.0,94,0.05,,,0.05,0.00,VWS V14.01,2013-01-06 10:13:00,
2013-01-06 02:18:00,48.4,46.8,30.12,SSW,198,0.0,3.0,94,0.06,,,0.06,0.00,VWS V14.01,2013-01-06 10:18:00,
2013-01-06 02:20:00,48.3,46.7,30.12,SSW,198,0.0,3.0,94,0.06,,,0.06,0.00,VWS V14.01,2013-01-06 10:20:00,
2013-01-06 02:23:00,48.3,46.7,30.12,West,266,0.0,3.0,94,0.05,,,0.06,0.00,VWS V14.01,2013-01-06 10:23:00,
2013-01-06 02:28:00,48.3,46.7,30.12,West,281,3.0,3.0,94,0.06,,,0.07,0.00,VWS V14.01,2013-01-06 10:28:00,
2013-01-06 02:30:00,48.3,46.7,30.11,WSW,256,2.0,5.0,94,0.06,,,0.07,0.00,VWS V14.01,2013-01-06 10:30:00,
2013-01-06 02:33:00,48.4,46.8,30.12,West,280,2.0,7.0,94,0.07,,,0.08,0.00,VWS V14.01,2013-01-06 10:33:00,
2013-01-06 02:38:00,48.4,46.8,30.12,WSW,245,0.0,7.0,94,0.07,,,0.08,0.00,VWS V14.01,2013-01-06 10:38:00,
2013-01-06 02:40:00,48.4,46.8,30.12,WSW,245,1.0,7.0,94,0.07,,,0.08,0.00,VWS V14.01,2013-01-06 10:40:00,
2013-01-06 02:43:00,48.4,46.8,30.11,SW,234,0.0,1.0,94,0.07,,,0.08,0.00,VWS V14.01,2013-01-06 10:43:00,
2013-01-06 02:48:00,48.4,46.8,30.11,SW,234,0.0,1.0,94,0.07,,,0.08,0.00,VWS V14.01,2013-01-06 10:48:00,
2013-01-06 02:50:00,48.4,46.8,30.11,WSW,243,0.0,2.0,94,0.07,,,0.08,0.00,VWS V14.01,2013-01-06 10:50:00,
2013-01-06 02:53:00,48.5,46.9,30.12,WSW,243,0.0,0.0,94,0.06,,,0.08,0.00,VWS V14.01,2013-01-06 10:53:00,
2013-01-06 02:58:00,48.5,46.9,30.11,WSW,243,0.0,0.0,94,0.06,,,0.08,0.00,VWS V14.01,2013-01-06 10:58:00,
2013-01-06 03:00:00,48.5,46.9,30.11,WSW,243,0.0,1.0,94,0.06,,,0.08,0.00,VWS V14.01,2013-01-06 11:00:00,
2013-01-06 03:05:00,48.5,46.9,30.11,WNW,295,2.0,2.0,94,0.00,,,0.09,0.00,VWS V14.01,2013-01-06 11:05:00,
2013-01-06 03:11:00,48.6,47.0,30.11,West,263,3.0,3.0,94,0.05,,,0.09,0.00,VWS V14.01,2013-01-06 11:11:00,
2013-01-06 03:16:00,48.7,47.3,30.11,SW,217,2.0,3.0,95,0.05,,,0.09,0.00,VWS V14.01,2013-01-06 11:16:00,
2013-01-06 03:21:00,48.7,47.3,30.11,WSW,254,3.0,3.0,95,0.03,,,0.09,0.00,VWS V14.01,2013-01-06 11:21:00,
2013-01-06 03:26:00,48.7,47.0,30.11,West,281,5.0,7.0,94,0.03,,,0.09,0.00,VWS V14.01,2013-01-06 11:26:00,
2013-01-06 03:31:00,48.7,47.0,30.11,WNW,297,5.0,7.0,94,0.02,,,0.09,0.00,VWS V14.01,2013-01-06 11:31:00,
2013-01-06 03:36:00,48.6,46.7,30.11,West,279,4.0,14.0,93,0.03,,,0.10,0.00,VWS V14.01,2013-01-06 11:36:00,
2013-01-06 03:41:00,48.4,46.2,30.11,WNW,289,2.0,7.0,92,0.02,,,0.10,0.00,VWS V14.01,2013-01-06 11:41:00,
2013-01-06 03:46:00,48.3,46.1,30.11,West,271,2.0,7.0,92,0.02,,,0.10,0.00,VWS V14.01,2013-01-06 11:46:00,
2013-01-06 03:51:00,48.4,46.2,30.11,West,272,2.0,6.0,92,0.02,,,0.10,0.00,VWS V14.01,2013-01-06 11:51:00,
2013-01-06 03:56:00,48.7,46.5,30.11,NW,310,6.0,7.0,92,0.02,,,0.10,0.00,VWS V14.01,2013-01-06 11:56:00,
2013-01-06 04:01:00,48.7,46.2,30.11,WSW,248,4.0,7.0,91,0.02,,,0.10,0.00,VWS V14.01,2013-01-06 12:01:00,
2013-01-06 04:06:00,48.7,46.5,30.11,West,275,1.0,10.0,92,0.02,,,0.10,0.00,VWS V14.01,2013-01-06 12:06:00,
2013-01-06 04:11:00,48.9,46.7,30.11,WSW,252,2.0,5.0,92,0.01,,,0.10,0.00,VWS V14.01,2013-01-06 12:11:00,
2013-01-06 04:16:00,48.7,46.5,30.10,WSW,249,2.0,6.0,92,0.02,,,0.11,0.00,VWS V14.01,2013-01-06 12:16:00,
2013-01-06 04:21:00,48.5,46.3,30.10,SSE,162,0.0,0.0,92,0.02,,,0.11,0.00,VWS V14.01,2013-01-06 12:21:00,
2013-01-06 04:26:00,48.3,46.1,30.09,West,264,0.0,3.0,92,0.02,,,0.11,0.00,VWS V14.01,2013-01-06 12:26:00,
2013-01-06 04:31:00,48.2,47.1,30.09,West,259,0.0,0.0,96,0.03,,,0.12,0.00,VWS V14.01,2013-01-06 12:31:00,
2013-01-06 04:36:00,48.1,45.9,30.09,West,259,0.0,0.0,92,0.03,,,0.12,0.00,VWS V14.01,2013-01-06 12:36:00,
2013-01-06 04:41:00,48.1,45.9,30.09,SSW,193,0.0,0.0,92,0.02,,,0.12,0.00,VWS V14.01,2013-01-06 12:41:00,
2013-01-06 04:46:00,48.1,46.2,30.09,SSW,193,0.0,1.0,93,0.02,,,0.12,0.00,VWS V14.01,2013-01-06 12:46:00,
2013-01-06 04:51:00,48.0,46.1,30.09,SSW,193,1.0,1.0,93,0.03,,,0.13,0.00,VWS V14.01,2013-01-06 12:51:00,
2013-01-06 04:56:00,48.0,46.1,30.09,SSW,193,0.0,1.0,93,0.04,,,0.14,0.00,VWS V14.01,2013-01-06 12:56:00,
2013-01-06 05:01:00,48.0,46.1,30.08,SSW,193,1.0,2.0,93,0.06,,,0.16,0.00,VWS V14.01,2013-01-06 13:01:00,
2013-01-06 05:06:00,47.9,46.0,30.08,WNW,287,2.0,5.0,93,0.06,,,0.16,0.00,VWS V14.01,2013-01-06 13:06:00,
2013-01-06 05:11:00,47.9,46.0,30.08,SE,132,3.0,3.0,93,0.07,,,0.17,0.00,VWS V14.01,2013-01-06 13:11:00,
2013-01-06 05:16:00,48.0,46.1,30.07,ESE,123,3.0,4.0,93,0.07,,,0.17,0.00,VWS V14.01,2013-01-06 13:16:00,
2013-01-06 05:21:00,47.9,46.0,30.07,ESE,123,3.0,3.0,93,0.06,,,0.17,0.00,VWS V14.01,2013-01-06 13:21:00,
2013-01-06 05:26:00,47.9,46.0,30.07,ESE,118,0.0,3.0,93,0.07,,,0.18,0.00,VWS V14.01,2013-01-06 13:26:00,
2013-01-06 05:31:00,47.9,46.0,30.06,SE,127,3.0,4.0,93,0.07,,,0.18,0.00,VWS V14.01,2013-01-06 13:31:00,
2013-01-06 05:36:00,47.8,46.2,30.07,SE,129,3.0,4.0,94,0.08,,,0.19,0.00,VWS V14.01,2013-01-06 13:36:00,
2013-01-06 05:41:00,47.7,46.1,30.06,ESE,115,3.0,5.0,94,0.07,,,0.19,0.00,VWS V14.01,2013-01-06 13:41:00,
2013-01-06 05:46:00,47.7,46.1,30.06,East,99,1.0,7.0,94,0.07,,,0.19,0.00,VWS V14.01,2013-01-06 13:46:00,
2013-01-06 05:51:00,47.6,46.0,30.06,ESE,118,2.0,3.0,94,0.06,,,0.19,0.00,VWS V14.01,2013-01-06 13:51:00,
2013-01-06 05:56:00,47.3,45.7,30.06,SE,134,4.0,6.0,94,0.06,,,0.19,0.00,VWS V14.01,2013-01-06 13:56:00,
2013-01-06 06:02:00,47.0,45.4,30.06,NE,47,4.0,4.0,94,0.04,,,0.19,0.00,VWS V14.01,2013-01-06 14:02:00,
2013-01-06 06:07:00,46.6,44.7,30.06,East,91,1.0,5.0,93,0.04,,,0.19,0.00,VWS V14.01,2013-01-06 14:07:00,
2013-01-06 06:12:00,46.3,44.7,30.07,ESE,121,1.0,1.0,94,0.02,,,0.19,0.00,VWS V14.01,2013-01-06 14:12:00,
2013-01-06 06:17:00,46.2,44.3,30.07,ESE,112,2.0,5.0,93,0.02,,,0.19,0.00,VWS V14.01,2013-01-06 14:17:00,
2013-01-06 06:22:00,46.1,44.2,30.08,ENE,74,3.0,5.0,93,0.02,,,0.19,0.00,VWS V14.01,2013-01-06 14:22:00,
2013-01-06 06:27:00,46.1,44.5,30.08,SE,142,2.0,5.0,94,0.02,,,0.19,0.00,VWS V14.01,2013-01-06 14:27:00,
2013-01-06 06:32:00,46.3,44.7,30.08,SSE,162,2.0,5.0,94,0.01,,,0.19,0.00,VWS V14.01,2013-01-06 14:32:00,
2013-01-06 06:37:00,46.3,44.4,30.09,East,82,0.0,5.0,93,0.01,,,0.19,0.00,VWS V14.01,2013-01-06 14:37:00,
2013-01-06 06:42:00,46.3,44.4,30.10,ENE,57,0.0,2.0,93,0.00,,,0.19,0.00,VWS V14.01,2013-01-06 14:42:00,
2013-01-06 06:47:00,46.2,44.3,30.11,NNE,25,0.0,4.0,93,0.00,,,0.19,0.00,VWS V14.01,2013-01-06 14:47:00,
2013-01-06 06:52:00,46.4,44.8,30.12,NE,46,2.0,7.0,94,0.00,,,0.19,0.00,VWS V14.01,2013-01-06 14:52:00,
2013-01-06 06:57:00,46.8,44.9,30.12,NNW,348,4.0,7.0,93,0.00,,,0.19,0.00,VWS V14.01,2013-01-06 14:57:00,
2013-01-06 07:02:00,46.9,45.0,30.13,NE,35,0.0,3.0,93,0.00,,,0.19,0.00,VWS V14.01,2013-01-06 15:02:00,
2013-01-06 07:07:00,47.0,45.1,30.13,NNE,31,0.0,3.0,93,0.00,,,0.19,0.00,VWS V14.01,2013-01-06 15:07:00,
2013-01-06 07:12:00,47.1,45.2,30.14,North,353,0.0,1.0,93,0.00,,,0.19,0.00,VWS V14.01,2013-01-06 15:12:00,
2013-01-06 07:17:00,47.2,45.3,30.14,ENE,59,3.0,3.0,93,0.00,,,0.19,0.00,VWS V14.01,2013-01-06 15:17:00,
2013-01-06 07:22:00,47.2,45.0,30.14,ENE,66,3.0,5.0,92,0.00,,,0.19,0.00,VWS V14.01,2013-01-06 15:22:00,
2013-01-06 07:27:00,47.3,45.1,30.15,NE,53,0.0,6.0,92,0.00,,,0.19,0.00,VWS V14.01,2013-01-06 15:27:00,
2013-01-06 07:32:00,47.3,45.1,30.15,ENE,75,0.0,2.0,92,0.00,,,0.19,5.00,VWS V14.01,2013-01-06 15:32:00,
2013-01-06 07:37:00,47.2,45.0,30.15,ENE,75,0.0,2.0,92,0.00,,,0.19,11.00,VWS V14.01,2013-01-06 15:37:00,
2013-01-06 07:42:00,47.3,45.1,30.15,East,89,0.0,2.0,92,0.00,,,0.19,25.00,VWS V14.01,2013-01-06 15:42:00,
2013-01-06 07:47:00,47.3,45.1,30.15,SE,129,1.0,2.0,92,0.00,,,0.19,33.00,VWS V14.01,2013-01-06 15:47:00,
2013-01-06 07:52:00,47.5,45.3,30.15,East,91,1.0,4.0,92,0.00,,,0.19,39.00,VWS V14.01,2013-01-06 15:52:00,
2013-01-06 07:57:00,47.5,45.3,30.15,SE,136,1.0,4.0,92,0.00,,,0.19,53.00,VWS V14.01,2013-01-06 15:57:00,
2013-01-06 08:02:00,47.4,45.2,30.16,East,98,1.0,1.0,92,0.00,,,0.19,56.00,VWS V14.01,2013-01-06 16:02:00,
2013-01-06 08:07:00,47.3,44.8,30.16,East,91,0.0,2.0,91,0.00,,,0.19,56.00,VWS V14.01,2013-01-06 16:07:00,
2013-01-06 08:12:00,47.2,44.7,30.16,East,89,0.0,0.0,91,0.00,,,0.19,70.00,VWS V14.01,2013-01-06 16:12:00,
2013-01-06 08:17:00,47.2,45.0,30.16,East,89,0.0,0.0,92,0.00,,,0.19,84.00,VWS V14.01,2013-01-06 16:17:00,
2013-01-06 08:22:00,47.3,45.1,30.16,East,89,0.0,1.0,92,0.00,,,0.19,79.00,VWS V14.01,2013-01-06 16:22:00,
2013-01-06 08:27:00,47.3,45.1,30.16,East,89,0.0,1.0,92,0.00,,,0.19,74.00,VWS V14.01,2013-01-06 16:27:00,
2013-01-06 08:32:00,47.4,45.2,30.17,East,89,1.0,1.0,92,0.00,,,0.19,84.00,VWS V14.01,2013-01-06 16:32:00,
2013-01-06 08:37:00,47.4,44.9,30.17,East,89,0.0,1.0,91,0.00,,,0.19,54.00,VWS V14.01,2013-01-06 16:37:00,
2013-01-06 08:42:00,47.5,45.0,30.17,East,89,0.0,1.0,91,0.00,,,0.19,58.00,VWS V14.01,2013-01-06 16:42:00,
2013-01-06 08:47:00,47.6,45.1,30.17,East,89,1.0,1.0,91,0.00,,,0.19,56.00,VWS V14.01,2013-01-06 16:47:00,
2013-01-06 08:52:00,47.7,45.2,30.17,ESE,118,1.0,1.0,91,0.00,,,0.19,63.00,VWS V14.01,2013-01-06 16:52:00,
2013-01-06 08:57:00,47.8,45.3,30.17,SE,133,0.0,3.0,91,0.00,,,0.19,74.00,VWS V14.01,2013-01-06 16:57:00,
2013-01-06 09:02:00,47.9,45.4,30.17,SE,128,0.0,3.0,91,0.00,,,0.19,60.00,VWS V14.01,2013-01-06 17:02:00,
2013-01-06 09:07:00,47.9,45.4,30.17,SE,127,0.0,3.0,91,0.00,,,0.19,49.00,VWS V14.01,2013-01-06 17:07:00,
2013-01-06 09:12:00,47.9,45.4,30.17,SE,129,0.0,1.0,91,0.00,,,0.19,56.00,VWS V14.01,2013-01-06 17:12:00,
2013-01-06 09:17:00,47.8,45.3,30.18,SE,129,0.0,1.0,91,0.00,,,0.19,60.00,VWS V14.01,2013-01-06 17:17:00,
2013-01-06 09:22:00,47.9,45.4,30.18,SE,129,0.0,0.0,91,0.00,,,0.19,63.00,VWS V14.01,2013-01-06 17:22:00,
2013-01-06 09:27:00,48.0,45.5,30.19,SE,128,0.0,1.0,91,0.00,,,0.19,95.00,VWS V14.01,2013-01-06 17:27:00,
2013-01-06 09:32:00,48.0,45.5,30.19,SE,128,0.0,0.0,91,0.00,,,0.19,81.00,VWS V14.01,2013-01-06 17:32:00,
2013-01-06 09:37:00,48.1,45.6,30.20,SE,129,2.0,2.0,91,0.00,,,0.19,74.00,VWS V14.01,2013-01-06 17:37:00,
2013-01-06 09:42:00,48.2,45.7,30.20,SE,129,0.0,0.0,91,0.00,,,0.19,51.00,VWS V14.01,2013-01-06 17:42:00,
2013-01-06 09:47:00,48.4,45.9,30.20,SE,129,1.0,3.0,91,0.00,,,0.19,54.00,VWS V14.01,2013-01-06 17:47:00,
2013-01-06 09:52:00,48.4,45.9,30.20,SE,129,0.0,0.0,91,0.00,,,0.19,33.00,VWS V14.01,2013-01-06 17:52:00,
2013-01-06 09:57:00,48.4,45.9,30.21,SE,129,0.0,1.0,91,0.00,,,0.19,44.00,VWS V14.01,2013-01-06 17:57:00,
2013-01-06 10:03:00,48.5,46.0,30.21,SE,129,1.0,2.0,91,0.00,,,0.19,47.00,VWS V14.01,2013-01-06 18:03:00,
2013-01-06 10:08:00,48.5,46.0,30.21,SE,129,0.0,2.0,91,0.00,,,0.19,47.00,VWS V14.01,2013-01-06 18:08:00,
2013-01-06 10:13:00,48.5,46.0,30.21,SE,129,1.0,1.0,91,0.00,,,0.19,35.00,VWS V14.01,2013-01-06 18:13:00,
2013-01-06 10:18:00,48.5,46.0,30.21,SE,129,1.0,1.0,91,0.00,,,0.19,40.00,VWS V14.01,2013-01-06 18:18:00,
2013-01-06 10:23:00,48.6,46.4,30.20,SE,129,0.0,0.0,92,0.00,,,0.19,84.00,VWS V14.01,2013-01-06 18:23:00,
2013-01-06 10:28:00,48.7,46.5,30.20,SE,129,0.0,1.0,92,0.00,,,0.19,102.00,VWS V14.01,2013-01-06 18:28:00,
2013-01-06 10:33:00,48.8,46.6,30.20,SE,129,0.0,1.0,92,0.00,,,0.19,97.00,VWS V14.01,2013-01-06 18:33:00,
2013-01-06 10:38:00,48.9,46.7,30.20,WNW,298,1.0,3.0,92,0.00,,,0.19,93.00,VWS V14.01,2013-01-06 18:38:00,
2013-01-06 10:43:00,49.1,46.6,30.20,West,279,0.0,4.0,91,0.00,,,0.19,146.00,VWS V14.01,2013-01-06 18:43:00,
2013-01-06 10:48:00,49.5,47.0,30.20,West,279,0.0,4.0,91,0.00,,,0.19,141.00,VWS V14.01,2013-01-06 18:48:00,
2013-01-06 10:53:00,49.6,47.1,30.20,West,279,0.0,2.0,91,0.00,,,0.19,141.00,VWS V14.01,2013-01-06 18:53:00,
2013-01-06 10:58:00,49.8,47.3,30.19,WNW,285,1.0,2.0,91,0.00,,,0.19,146.00,VWS V14.01,2013-01-06 18:58:00,
2013-01-06 11:03:00,50.1,47.6,30.19,WNW,285,1.0,2.0,91,0.00,,,0.19,156.00,VWS V14.01,2013-01-06 19:03:00,
2013-01-06 11:08:00,50.2,47.4,30.19,WNW,287,1.0,5.0,90,0.00,,,0.19,183.00,VWS V14.01,2013-01-06 19:08:00,
2013-01-06 11:13:00,50.5,47.7,30.19,West,269,4.0,4.0,90,0.00,,,0.19,193.00,VWS V14.01,2013-01-06 19:13:00,
2013-01-06 11:18:00,50.7,47.6,30.19,WSW,250,4.0,6.0,89,0.00,,,0.19,148.00,VWS V14.01,2013-01-06 19:18:00,
2013-01-06 11:23:00,50.9,47.2,30.18,NW,304,2.0,7.0,87,0.00,,,0.19,193.00,VWS V14.01,2013-01-06 19:23:00,
2013-01-06 11:28:00,51.2,47.5,30.18,NW,308,2.0,7.0,87,0.00,,,0.19,220.00,VWS V14.01,2013-01-06 19:28:00,
2013-01-06 11:33:00,51.2,46.8,30.18,WNW,293,3.0,10.0,85,0.00,,,0.19,248.00,VWS V14.01,2013-01-06 19:33:00,
2013-01-06 11:38:00,51.4,46.7,30.18,NW,325,3.0,10.0,84,0.00,,,0.19,234.00,VWS V14.01,2013-01-06 19:38:00,
2013-01-06 11:43:00,51.6,47.2,30.18,NW,306,8.0,8.0,85,0.00,,,0.19,260.00,VWS V14.01,2013-01-06 19:43:00,
2013-01-06 11:49:00,51.6,46.9,30.18,NW,306,2.0,9.0,84,0.00,,,0.19,248.00,VWS V14.01,2013-01-06 19:49:00,
2013-01-06 11:54:00,51.6,46.6,30.17,NW,319,4.0,7.0,83,0.00,,,0.19,169.00,VWS V14.01,2013-01-06 19:54:00,
2013-01-06 12:00:00,51.6,46.6,30.17,North,353,5.0,7.0,83,0.00,,,0.19,188.00,VWS V14.01,2013-01-06 20:00:00,
2013-01-06 12:05:00,51.6,46.9,30.17,West,279,4.0,5.0,84,0.00,,,0.19,132.00,VWS V14.01,2013-01-06 20:05:00,
2013-01-06 12:10:00,51.5,46.5,30.17,WNW,303,0.0,6.0,83,0.00,,,0.19,137.00,VWS V14.01,2013-01-06 20:10:00,
2013-01-06 12:13:00,51.5,46.5,30.17,WNW,300,3.0,5.0,83,0.00,,,0.19,144.00,VWS V14.01,2013-01-06 20:13:00,
2013-01-06 12:16:00,51.5,46.5,30.16,WNW,290,1.0,5.0,83,0.00,,,0.19,146.00,VWS V14.01,2013-01-06 20:16:00,
2013-01-06 12:21:00,51.5,46.5,30.16,WNW,295,5.0,7.0,83,0.00,,,0.19,167.00,VWS V14.01,2013-01-06 20:21:00,
2013-01-06 12:26:00,51.5,46.5,30.16,North,353,3.0,9.0,83,0.00,,,0.19,169.00,VWS V14.01,2013-01-06 20:26:00,
2013-01-06 12:31:00,51.6,46.9,30.16,West,281,5.0,6.0,84,0.00,,,0.19,144.00,VWS V14.01,2013-01-06 20:31:00,
2013-01-06 12:36:00,51.7,46.7,30.16,West,262,3.0,6.0,83,0.00,,,0.19,153.00,VWS V14.01,2013-01-06 20:36:00,
2013-01-06 12:41:00,51.8,46.8,30.16,WSW,249,4.0,5.0,83,0.00,,,0.19,156.00,VWS V14.01,2013-01-06 20:41:00,
2013-01-06 12:46:00,51.8,46.5,30.16,WSW,244,4.0,9.0,82,0.00,,,0.19,163.00,VWS V14.01,2013-01-06 20:46:00,
2013-01-06 12:51:00,51.7,46.1,30.16,WNW,299,2.0,9.0,81,0.00,,,0.19,190.00,VWS V14.01,2013-01-06 20:51:00,
2013-01-06 12:56:00,51.9,46.6,30.16,West,264,5.0,9.0,82,0.00,,,0.19,185.00,VWS V14.01,2013-01-06 20:56:00,
2013-01-06 13:00:00,51.9,46.6,30.15,NW,304,1.0,2.0,82,0.00,,,0.19,186.00,VWS V14.01,2013-01-06 21:00:00,
2013-01-06 13:05:00,52.0,47.0,30.15,North,5,6.0,7.0,83,0.00,,,0.19,151.00,VWS V14.01,2013-01-06 21:05:00,
2013-01-06 13:10:00,52.0,46.7,30.15,WNW,290,4.0,4.0,82,0.00,,,0.19,172.00,VWS V14.01,2013-01-06 21:10:00,
2013-01-06 13:15:00,51.9,46.3,30.15,NW,304,2.0,6.0,81,0.00,,,0.19,185.00,VWS V14.01,2013-01-06 21:15:00,
2013-01-06 13:20:00,52.1,46.5,30.15,NW,304,2.0,2.0,81,0.00,,,0.19,200.00,VWS V14.01,2013-01-06 21:20:00,
2013-01-06 13:25:00,52.1,46.5,30.15,WNW,289,4.0,7.0,81,0.00,,,0.19,360.00,VWS V14.01,2013-01-06 21:25:00,
2013-01-06 13:30:00,52.4,46.8,30.15,NW,312,2.0,3.0,81,0.00,,,0.19,244.00,VWS V14.01,2013-01-06 21:30:00,
2013-01-06 13:35:00,52.5,46.5,30.15,NW,320,4.0,8.0,80,0.00,,,0.19,185.00,VWS V14.01,2013-01-06 21:35:00,
2013-01-06 13:40:00,52.4,46.4,30.15,WNW,298,4.0,8.0,80,0.00,,,0.19,172.00,VWS V14.01,2013-01-06 21:40:00,
2013-01-06 13:45:00,52.1,46.5,30.16,NNW,347,2.0,8.0,81,0.00,,,0.19,162.00,VWS V14.01,2013-01-06 21:45:00,
2013-01-06 13:51:00,52.1,46.5,30.16,WNW,303,8.0,8.0,81,0.00,,,0.19,142.00,VWS V14.01,2013-01-06 21:51:00,
2013-01-06 13:56:00,52.1,46.5,30.16,West,277,2.0,8.0,81,0.00,,,0.19,135.00,VWS V14.01,2013-01-06 21:56:00,
2013-01-06 14:01:00,52.1,46.5,30.16,West,281,6.0,6.0,81,0.00,,,0.19,156.00,VWS V14.01,2013-01-06 22:01:00,
2013-01-06 14:06:00,51.9,45.9,30.16,WNW,296,3.0,9.0,80,0.00,,,0.19,156.00,VWS V14.01,2013-01-06 22:06:00,
2013-01-06 14:11:00,51.9,46.3,30.16,NW,306,1.0,6.0,81,0.00,,,0.19,190.00,VWS V14.01,2013-01-06 22:11:00,
2013-01-06 14:16:00,51.9,46.3,30.16,North,353,1.0,7.0,81,0.00,,,0.19,197.00,VWS V14.01,2013-01-06 22:16:00,
2013-01-06 14:21:00,52.0,46.4,30.16,WNW,296,3.0,4.0,81,0.00,,,0.19,190.00,VWS V14.01,2013-01-06 22:21:00,
2013-01-06 14:26:00,52.4,46.8,30.15,North,353,2.0,8.0,81,0.00,,,0.19,550.00,VWS V14.01,2013-01-06 22:26:00,
2013-01-06 14:31:00,53.1,47.4,30.15,West,268,5.0,8.0,81,0.00,,,0.19,570.00,VWS V14.01,2013-01-06 22:31:00,
2013-01-06 14:36:00,53.5,47.2,30.16,WNW,287,8.0,10.0,79,0.00,,,0.19,580.00,VWS V14.01,2013-01-06 22:36:00,
2013-01-06 14:41:00,53.5,47.2,30.15,West,277,5.0,5.0,79,0.00,,,0.19,378.00,VWS V14.01,2013-01-06 22:41:00,
2013-01-06 14:46:00,53.3,47.0,30.15,West,272,7.0,8.0,79,0.00,,,0.19,241.00,VWS V14.01,2013-01-06 22:46:00,
2013-01-06 14:51:00,53.2,46.9,30.15,North,349,3.0,7.0,79,0.00,,,0.19,230.00,VWS V14.01,2013-01-06 22:51:00,
2013-01-06 14:56:00,53.3,47.0,30.15,NNE,15,3.0,8.0,79,0.00,,,0.19,450.00,VWS V14.01,2013-01-06 22:56:00,
2013-01-06 15:01:00,53.3,47.0,30.15,NNE,15,1.0,8.0,79,0.00,,,0.19,192.00,VWS V14.01,2013-01-06 23:01:00,
2013-01-06 15:06:00,53.2,47.2,30.16,NNW,343,2.0,8.0,80,0.00,,,0.19,111.00,VWS V14.01,2013-01-06 23:06:00,
2013-01-06 15:11:00,53.0,47.0,30.15,NW,314,1.0,6.0,80,0.00,,,0.19,107.00,VWS V14.01,2013-01-06 23:11:00,
2013-01-06 15:16:00,52.7,46.7,30.15,North,10,6.0,8.0,80,0.00,,,0.19,76.00,VWS V14.01,2013-01-06 23:16:00,
2013-01-06 15:21:00,52.7,47.0,30.16,North,360,0.0,6.0,81,0.00,,,0.19,79.00,VWS V14.01,2013-01-06 23:21:00,
2013-01-06 15:26:00,52.6,46.9,30.16,North,355,0.0,6.0,81,0.00,,,0.19,90.00,VWS V14.01,2013-01-06 23:26:00,
2013-01-06 15:31:00,52.6,46.9,30.16,NW,324,5.0,5.0,81,0.01,,,0.20,56.00,VWS V14.01,2013-01-06 23:31:00,
2013-01-06 15:36:00,52.3,46.7,30.16,North,360,3.0,5.0,81,0.01,,,0.20,77.00,VWS V14.01,2013-01-06 23:36:00,
2013-01-06 15:41:00,52.0,46.4,30.16,NW,326,4.0,5.0,81,0.01,,,0.20,70.00,VWS V14.01,2013-01-06 23:41:00,
2013-01-06 15:46:00,51.8,46.2,30.16,NNW,338,1.0,6.0,81,0.01,,,0.20,79.00,VWS V14.01,2013-01-06 23:46:00,
2013-01-06 15:51:00,51.7,46.1,30.16,NNW,347,1.0,6.0,81,0.01,,,0.20,70.00,VWS V14.01,2013-01-06 23:51:00,
2013-01-06 15:56:00,51.7,45.7,30.16,NNE,20,1.0,6.0,80,0.01,,,0.20,74.00,VWS V14.01,2013-01-06 23:56:00,
2013-01-06 16:02:00,51.6,45.6,30.16,NNW,335,1.0,5.0,80,0.01,,,0.20,111.00,VWS V14.01,2013-01-07 00:02:00,
2013-01-06 16:07:00,51.8,45.8,30.16,NNW,345,1.0,5.0,80,0.01,,,0.20,109.00,VWS V14.01,2013-01-07 00:07:00,
2013-01-06 16:12:00,51.8,45.5,30.17,NNW,327,3.0,6.0,79,0.01,,,0.20,83.00,VWS V14.01,2013-01-07 00:12:00,
2013-01-06 16:17:00,51.8,45.5,30.17,NNW,344,2.0,6.0,79,0.01,,,0.20,62.00,VWS V14.01,2013-01-07 00:17:00,
2013-01-06 16:22:00,51.8,45.2,30.16,North,349,3.0,6.0,78,0.01,,,0.20,37.00,VWS V14.01,2013-01-07 00:22:00,
2013-01-06 16:27:00,51.6,45.0,30.17,NNW,334,1.0,6.0,78,0.01,,,0.20,28.00,VWS V14.01,2013-01-07 00:27:00,
2013-01-06 16:32:00,51.6,45.3,30.17,North,356,1.0,4.0,79,0.00,,,0.20,21.00,VWS V14.01,2013-01-07 00:32:00,
2013-01-06 16:37:00,51.5,45.2,30.17,NNW,333,5.0,5.0,79,0.00,,,0.20,12.00,VWS V14.01,2013-01-07 00:37:00,
2013-01-06 16:42:00,51.4,45.1,30.16,NNE,25,5.0,6.0,79,0.00,,,0.20,12.00,VWS V14.01,2013-01-07 00:42:00,
2013-01-06 16:47:00,51.3,45.0,30.17,NW,313,2.0,8.0,79,0.00,,,0.20,11.00,VWS V14.01,2013-01-07 00:47:00,
2013-01-06 16:52:00,51.2,44.9,30.17,NNE,29,5.0,8.0,79,0.00,,,0.20,7.00,VWS V14.01,2013-01-07 00:52:00,
2013-01-06 16:57:00,51.3,44.7,30.17,NW,322,5.0,8.0,78,0.00,,,0.20,5.00,VWS V14.01,2013-01-07 00:57:00,
2013-01-06 17:02:00,51.4,45.1,30.16,NNW,331,4.0,7.0,79,0.00,,,0.20,0.00,VWS V14.01,2013-01-07 01:02:00,
2013-01-06 17:07:00,51.4,45.1,30.17,NNW,345,8.0,8.0,79,0.00,,,0.20,0.00,VWS V14.01,2013-01-07 01:07:00,
2013-01-06 17:12:00,51.3,44.7,30.17,West,272,4.0,7.0,78,0.00,,,0.20,0.00,VWS V14.01,2013-01-07 01:12:00,
2013-01-06 17:17:00,51.3,44.7,30.17,WNW,303,4.0,9.0,78,0.00,,,0.20,0.00,VWS V14.01,2013-01-07 01:17:00,
2013-01-06 17:22:00,51.3,44.7,30.17,WNW,297,4.0,5.0,78,0.00,,,0.20,0.00,VWS V14.01,2013-01-07 01:22:00,
2013-01-06 17:27:00,51.3,45.0,30.17,NNW,344,5.0,9.0,79,0.00,,,0.20,0.00,VWS V14.01,2013-01-07 01:27:00,
2013-01-06 17:32:00,51.3,44.7,30.17,NNW,329,3.0,9.0,78,0.00,,,0.20,0.00,VWS V14.01,2013-01-07 01:32:00,
2013-01-06 17:37:00,51.3,44.7,30.17,NNW,348,5.0,10.0,78,0.00,,,0.20,0.00,VWS V14.01,2013-01-07 01:37:00,
2013-01-06 17:42:00,51.3,44.7,30.17,NNW,345,4.0,7.0,78,0.00,,,0.20,0.00,VWS V14.01,2013-01-07 01:42:00,
2013-01-06 17:47:00,51.2,44.6,30.17,NW,315,3.0,7.0,78,0.00,,,0.20,0.00,VWS V14.01,2013-01-07 01:47:00,
2013-01-06 17:52:00,51.2,44.6,30.17,NE,55,4.0,9.0,78,0.00,,,0.20,0.00,VWS V14.01,2013-01-07 01:52:00,
2013-01-06 17:57:00,51.1,44.2,30.17,NNW,332,1.0,9.0,77,0.00,,,0.20,0.00,VWS V14.01,2013-01-07 01:57:00,
2013-01-06 18:02:00,50.9,43.6,30.17,NW,308,2.0,5.0,76,0.00,,,0.20,0.00,VWS V14.01,2013-01-07 02:02:00,
2013-01-06 18:07:00,50.8,43.9,30.17,WNW,299,1.0,8.0,77,0.00,,,0.20,0.00,VWS V14.01,2013-01-07 02:07:00,
2013-01-06 18:12:00,50.8,44.2,30.17,NW,311,1.0,8.0,78,0.00,,,0.20,0.00,VWS V14.01,2013-01-07 02:12:00,
2013-01-06 18:17:00,50.8,44.2,30.17,WNW,299,5.0,8.0,78,0.00,,,0.20,0.00,VWS V14.01,2013-01-07 02:17:00,
2013-01-06 18:22:00,50.8,44.2,30.17,WNW,303,0.0,4.0,78,0.00,,,0.20,0.00,VWS V14.01,2013-01-07 02:22:00,
2013-01-06 18:27:00,50.7,43.8,30.17,WNW,285,3.0,9.0,77,0.00,,,0.20,0.00,VWS V14.01,2013-01-07 02:27:00,
2013-01-06 18:32:00,50.6,43.7,30.17,NNW,347,0.0,4.0,77,0.00,,,0.20,0.00,VWS V14.01,2013-01-07 02:32:00,
2013-01-06 18:37:00,50.5,43.6,30.17,NW,323,2.0,5.0,77,0.00,,,0.20,0.00,VWS V14.01,2013-01-07 02:37:00,
2013-01-06 18:42:00,50.6,44.0,30.17,NW,312,5.0,5.0,78,0.00,,,0.20,0.00,VWS V14.01,2013-01-07 02:42:00,
2013-01-06 18:47:00,50.6,44.0,30.17,WNW,303,4.0,6.0,78,0.00,,,0.20,0.00,VWS V14.01,2013-01-07 02:47:00,
2013-01-06 18:52:00,50.6,44.0,30.18,NNW,344,1.0,5.0,78,0.00,,,0.20,0.00,VWS V14.01,2013-01-07 02:52:00,
2013-01-06 18:57:00,50.6,43.7,30.18,NW,324,1.0,8.0,77,0.00,,,0.20,0.00,VWS V14.01,2013-01-07 02:57:00,
2013-01-06 19:02:00,50.6,43.7,30.18,WNW,285,1.0,7.0,77,0.00,,,0.20,0.00,VWS V14.01,2013-01-07 03:02:00,
2013-01-06 19:07:00,50.6,43.7,30.18,NNW,343,1.0,7.0,77,0.00,,,0.20,0.00,VWS V14.01,2013-01-07 03:07:00,
2013-01-06 19:12:00,50.5,43.9,30.18,NNW,331,2.0,6.0,78,0.00,,,0.20,0.00,VWS V14.01,2013-01-07 03:12:00,
2013-01-06 19:17:00,50.4,43.5,30.18,NNE,15,2.0,6.0,77,0.00,,,0.20,0.00,VWS V14.01,2013-01-07 03:17:00,
2013-01-06 19:22:00,50.5,43.6,30.19,NNW,341,2.0,3.0,77,0.00,,,0.20,0.00,VWS V14.01,2013-01-07 03:22:00,
2013-01-06 19:27:00,50.5,43.6,30.19,NW,308,2.0,5.0,77,0.00,,,0.20,0.00,VWS V14.01,2013-01-07 03:27:00,
2013-01-06 19:32:00,50.5,43.6,30.19,NW,324,0.0,4.0,77,0.00,,,0.20,0.00,VWS V14.01,2013-01-07 03:32:00,
2013-01-06 19:37:00,50.5,43.9,30.19,NNW,343,5.0,5.0,78,0.00,,,0.20,0.00,VWS V14.01,2013-01-07 03:37:00,
2013-01-06 19:42:00,50.4,43.8,30.19,NNW,347,1.0,2.0,78,0.00,,,0.20,0.00,VWS V14.01,2013-01-07 03:42:00,
2013-01-06 19:47:00,50.4,43.8,30.19,NNW,343,1.0,2.0,78,0.00,,,0.20,0.00,VWS V14.01,2013-01-07 03:47:00,
2013-01-06 19:52:00,50.3,43.7,30.19,West,281,2.0,2.0,78,0.00,,,0.20,0.00,VWS V14.01,2013-01-07 03:52:00,
2013-01-06 19:57:00,50.2,43.6,30.19,NW,322,0.0,3.0,78,0.00,,,0.20,0.00,VWS V14.01,2013-01-07 03:57:00,
2013-01-06 20:02:00,50.1,43.2,30.19,North,353,0.0,2.0,77,0.00,,,0.20,0.00,VWS V14.01,2013-01-07 04:02:00,
2013-01-06 20:07:00,50.0,43.1,30.19,NNW,342,2.0,5.0,77,0.00,,,0.20,0.00,VWS V14.01,2013-01-07 04:07:00,
2013-01-06 20:12:00,50.1,43.5,30.19,NNW,348,0.0,2.0,78,0.00,,,0.20,0.00,VWS V14.01,2013-01-07 04:12:00,
2013-01-06 20:17:00,50.0,43.4,30.19,NNW,347,0.0,2.0,78,0.00,,,0.20,0.00,VWS V14.01,2013-01-07 04:17:00,
2013-01-06 20:22:00,49.9,43.7,30.19,North,352,2.0,2.0,79,0.00,,,0.20,0.00,VWS V14.01,2013-01-07 04:22:00,
2013-01-06 20:27:00,49.9,44.0,30.20,NW,326,0.0,2.0,80,0.00,,,0.20,0.00,VWS V14.01,2013-01-07 04:27:00,
2013-01-06 20:32:00,49.8,43.9,30.20,NNW,333,0.0,3.0,80,0.00,,,0.20,0.00,VWS V14.01,2013-01-07 04:32:00,
2013-01-06 20:37:00,49.7,43.8,30.20,NNW,333,0.0,3.0,80,0.00,,,0.20,0.00,VWS V14.01,2013-01-07 04:37:00,
2013-01-06 20:42:00,49.6,43.7,30.20,NNW,333,0.0,0.0,80,0.00,,,0.20,0.00,VWS V14.01,2013-01-07 04:42:00,
2013-01-06 20:47:00,49.4,43.5,30.20,NNW,333,0.0,0.0,80,0.00,,,0.20,0.00,VWS V14.01,2013-01-07 04:47:00,
2013-01-06 20:53:00,49.2,43.6,30.21,WNW,293,4.0,4.0,81,0.00,,,0.20,0.00,VWS V14.01,2013-01-07 04:53:00,
2013-01-06 20:58:00,49.3,44.0,30.21,WNW,291,1.0,4.0,82,0.00,,,0.20,0.00,VWS V14.01,2013-01-07 04:58:00,
2013-01-06 21:00:00,49.4,43.8,30.21,North,351,0.0,4.0,81,0.00,,,0.20,0.00,VWS V14.01,2013-01-07 05:00:00,
2013-01-06 21:01:00,49.4,43.8,30.21,North,350,0.0,2.0,81,0.00,,,0.20,0.00,VWS V14.01,2013-01-07 05:01:00,
2013-01-06 21:03:00,49.4,43.8,30.21,North,350,0.0,2.0,81,0.00,,,0.20,0.00,VWS V14.01,2013-01-07 05:03:00,
2013-01-06 21:04:00,49.4,43.8,30.21,North,350,0.0,2.0,81,0.00,,,0.20,0.00,VWS V14.01,2013-01-07 05:04:00,
2013-01-06 21:09:00,49.2,43.6,30.21,North,352,0.0,2.0,81,0.00,,,0.20,0.00,VWS V14.01,2013-01-07 05:09:00,
2013-01-06 21:14:00,49.1,43.5,30.21,North,352,0.0,2.0,81,0.00,,,0.20,0.00,VWS V14.01,2013-01-07 05:14:00,
2013-01-06 21:19:00,49.1,43.8,30.21,North,352,0.0,2.0,82,0.00,,,0.20,0.00,VWS V14.01,2013-01-07 05:19:00,
2013-01-06 21:24:00,49.0,44.1,30.21,NNW,341,1.0,2.0,83,0.00,,,0.20,0.00,VWS V14.01,2013-01-07 05:24:00,
2013-01-06 21:29:00,49.1,44.5,30.21,WNW,297,1.0,3.0,84,0.00,,,0.20,0.00,VWS V14.01,2013-01-07 05:29:00,
2013-01-06 21:34:00,49.2,44.6,30.22,West,281,0.0,2.0,84,0.00,,,0.20,0.00,VWS V14.01,2013-01-07 05:34:00,
2013-01-06 21:39:00,49.3,44.7,30.21,NNW,341,0.0,3.0,84,0.00,,,0.20,0.00,VWS V14.01,2013-01-07 05:39:00,
2013-01-06 21:44:00,49.3,44.7,30.21,NW,316,0.0,3.0,84,0.00,,,0.20,0.00,VWS V14.01,2013-01-07 05:44:00,
2013-01-06 21:49:00,49.2,44.9,30.21,WSW,243,3.0,4.0,85,0.00,,,0.20,0.00,VWS V14.01,2013-01-07 05:49:00,
2013-01-06 21:54:00,49.3,45.0,30.21,North,351,2.0,6.0,85,0.00,,,0.20,0.00,VWS V14.01,2013-01-07 05:54:00,
2013-01-06 21:59:00,49.4,45.1,30.22,NNW,341,1.0,6.0,85,0.00,,,0.20,0.00,VWS V14.01,2013-01-07 05:59:00,
2013-01-06 22:04:00,49.5,45.2,30.22,NW,311,0.0,3.0,85,0.00,,,0.20,0.00,VWS V14.01,2013-01-07 06:04:00,
2013-01-06 22:09:00,49.5,45.2,30.21,NNE,15,0.0,3.0,85,0.00,,,0.20,0.00,VWS V14.01,2013-01-07 06:09:00,
2013-01-06 22:14:00,49.4,45.1,30.21,NNE,25,0.0,1.0,85,0.00,,,0.20,0.00,VWS V14.01,2013-01-07 06:14:00,
2013-01-06 22:19:00,49.3,45.0,30.21,NE,56,0.0,3.0,85,0.00,,,0.20,0.00,VWS V14.01,2013-01-07 06:19:00,
2013-01-06 22:24:00,49.3,44.7,30.20,North,353,0.0,4.0,84,0.00,,,0.20,0.00,VWS V14.01,2013-01-07 06:24:00,
2013-01-06 22:29:00,49.2,44.6,30.20,East,97,0.0,4.0,84,0.00,,,0.20,0.00,VWS V14.01,2013-01-07 06:29:00,
2013-01-06 22:34:00,49.0,44.1,30.20,East,97,0.0,0.0,83,0.00,,,0.20,0.00,VWS V14.01,2013-01-07 06:34:00,
2013-01-06 22:39:00,48.6,44.0,30.20,East,97,0.0,0.0,84,0.00,,,0.20,0.00,VWS V14.01,2013-01-07 06:39:00,
2013-01-06 22:44:00,48.2,43.6,30.19,East,97,0.0,0.0,84,0.00,,,0.20,0.00,VWS V14.01,2013-01-07 06:44:00,
2013-01-06 22:49:00,47.7,43.1,30.19,East,97,0.0,0.0,84,0.00,,,0.20,0.00,VWS V14.01,2013-01-07 06:49:00,
2013-01-06 22:54:00,47.4,43.1,30.19,East,97,0.0,0.0,85,0.00,,,0.20,0.00,VWS V14.01,2013-01-07 06:54:00,
2013-01-06 22:59:00,47.0,42.7,30.19,East,97,0.0,0.0,85,0.00,,,0.20,0.00,VWS V14.01,2013-01-07 06:59:00,
2013-01-06 23:04:00,46.7,42.7,30.19,East,97,0.0,0.0,86,0.00,,,0.20,0.00,VWS V14.01,2013-01-07 07:04:00,
2013-01-06 23:09:00,46.3,42.3,30.19,East,97,0.0,0.0,86,0.00,,,0.20,0.00,VWS V14.01,2013-01-07 07:09:00,
2013-01-06 23:14:00,45.9,42.0,30.19,East,97,0.0,0.0,86,0.00,,,0.20,0.00,VWS V14.01,2013-01-07 07:14:00,
2013-01-06 23:19:00,45.6,42.0,30.19,East,97,0.0,0.0,87,0.00,,,0.20,0.00,VWS V14.01,2013-01-07 07:19:00,
2013-01-06 23:24:00,45.2,41.6,30.19,East,97,0.0,0.0,87,0.00,,,0.20,0.00,VWS V14.01,2013-01-07 07:24:00,
2013-01-06 23:29:00,44.9,41.6,30.20,East,97,0.0,2.0,88,0.00,,,0.20,0.00,VWS V14.01,2013-01-07 07:29:00,
2013-01-06 23:34:00,44.7,41.4,30.20,East,97,0.0,0.0,88,0.00,,,0.20,0.00,VWS V14.01,2013-01-07 07:34:00,
2013-01-06 23:39:00,44.5,41.5,30.20,East,97,0.0,0.0,89,0.00,,,0.20,0.00,VWS V14.01,2013-01-07 07:39:00,
2013-01-06 23:45:00,44.4,41.4,30.20,East,97,0.0,0.0,89,0.00,,,0.20,0.00,VWS V14.01,2013-01-07 07:45:00,
2013-01-06 23:50:00,44.2,41.2,30.20,East,97,0.0,0.0,89,0.00,,,0.20,0.00,VWS V14.01,2013-01-07 07:50:00,
2013-01-06 23:55:00,44.0,41.0,30.20,East,97,0.0,1.0,89,0.00,,,0.20,0.00,VWS V14.01,2013-01-07 07:55:00,